Regional Weather Roundup
Issued by NWS

Home | Current Version | Previous Version | Text Only | Print | Product List | Glossary On
Versions: 1 2 3 4 5 6 7 8 9 10 11 12 13 14 15 16 17 18 19 20 21 22 23 24 25 26 27 28 29 30 31 32 33 34 35 36 37 38 39 40 41 42 43 44 45 46 47 48 49 50
000
ASUS45 KBOU 292210
RWRCO

WEATHER ROUNDUP FOR COLORADO
NATIONAL WEATHER SERVICE DENVER/BOULDER CO
400 PM MDT MON JUN 29 2015

NOTE: "FAIR" INDICATES FEW OR NO CLOUDS BELOW 12000 FEET WITH NO
SIGNIFICANT WEATHER AND/OR OBSTRUCTIONS TO VISIBILITY.

COZ001>005-013-030-031-292300-
...NORTHWEST COLORADO...

CITY           SKY/WX    TMP DP  RH WIND       PRES   REMARKS
CRAIG          SUNNY     93  34  12 N8        30.22F
HAYDEN         SUNNY     88  36  15 N12       30.25F
MEEKER         MOSUNNY   91  43  18 NE6       30.24F
MOUNT WERNER   NOT AVBL
STEAMBOAT SPGS MOSUNNY   85  43  22 S3        30.28F
WALDEN         CLOUDY    73  43  33 N16       30.40F
$$

COZ006>008-011-292300-
...WEST CENTRAL VALLEYS...

CITY           SKY/WX    TMP DP  RH WIND       PRES   REMARKS
GRAND JUNCTION MOSUNNY   98  43  15 SW7       30.05F
MONTROSE       SUNNY     91  44  19 VRB6      30.16F
EAGLE          MOSUNNY   90  30  12 NE17G24   30.23F
RIFLE          MOSUNNY   96  38  13 NW13G22   30.13F
DELTA          SUNNY    101  39  11 S3G18     30.08F
NUCLA          SUNNY     90  41  18 N5        30.21F
$$

COZ017>023-064>068-292300-
...SOUTHWEST COLORADO...

CITY           SKY/WX    TMP DP  RH WIND       PRES   REMARKS
DURANGO        PTSUNNY   84  53  34 S7        30.22F
CORTEZ         SUNNY     95  43  16 N7        30.15F
PAGOSA SPRINGS PTSUNNY   80  41  25 CALM      30.33S
TELLURIDE      MOSUNNY   77  37  22 CALM      30.47F
WOLF CREEK PAS NOT AVBL
$$

COZ009-010-012-014-032>034-037-058>063-292300-
...CENTRAL COLORADO...

CITY           SKY/WX    TMP DP  RH WIND       PRES   REMARKS
ASPEN          MOSUNNY   85  42  22 N6        30.33F
BUENA VISTA    CLOUDY    74  48  40 S14G22    30.37R
COPPER MTN     PTSUNNY   68  18  14 W16G24    30.72F
BERTHOUD PASS  CLOUDY    48  39  71 E15G28    30.78F THUNDER
COTTONWOOD PAS NOT AVBL
GUNNISON       MOSUNNY   84  39  20 N17       30.32F
KREMMLING      MOSUNNY   82  25  12 NW9G16    30.32F
LEADVILLE      MOSUNNY   75  24  15 N14G25    30.50F
MONARCH PASS   PTSUNNY   54  43  66 NE21      30.79S THUNDER
SALIDA         PTSUNNY   76  46  33 SE10G22   30.41S
SUNLIGHT       MOSUNNY   72  39  30 NW6       30.65F
WILKERSON PASS MOSUNNY   63  39  42 E8        30.68F
$$

COZ069>075-292300-
...SAN LUIS VALLEY/SANGRE DE CRISTO MOUNTAINS...

CITY           SKY/WX    TMP DP  RH WIND       PRES   REMARKS
ALAMOSA        PTSUNNY   84  38  19 VRB5      30.31S
LA VETA PASS   MOSUNNY   68  45  42 MISG      30.56S
SAGUACHE       CLOUDY    68  52  56 N3        30.38R
$$

COZ035-036-038>040-292300-
...NORTHERN COLORADO FRONT RANGE...

CITY           SKY/WX    TMP DP  RH WIND       PRES   REMARKS
DENVER INTL AP PTSUNNY   88  46  23 N12       30.21F
DMNS CITY PARK   N/A     84  42  22 N5G18     30.21S
AURORA         NOT AVBL
FRONT RANGE AP MOSUNNY   86  50  28 E5        30.22F
ERIE MUNI ARPT PTSUNNY   85  46  26 N8        30.20S
BOULDER MUN AP PTSUNNY   82  48  30 NW5       30.22S
CENTENNIAL     MOSUNNY   85  48  27 NE8       30.25F
BROOMFIELD     PTSUNNY   86  48  26 N9        30.25
FORT COLLINS   MOSUNNY   81  55  41 W3        30.19R
LONGMONT       MOSUNNY   85  50  29 NW6       30.22S
$$

COZ041-046-047-076>085-087-088-292300-
...PIKES PEAK/PALMER DIVIDE AND SOUTHERN FOOTHILLS...

CITY           SKY/WX    TMP DP  RH WIND       PRES   REMARKS
COLO. SPRINGS  PTSUNNY   78  52  40 SE7       30.29F
A. F. ACADEMY  NOT AVBL
ELLICOTT       SUNNY    N/A N/A N/A S6        30.27F
FALCON         MOSUNNY   78  49  36 CALM      30.34F
FORT CARSON    NOT AVBL
LIMON          SUNNY     82  53  36 VRB5      30.22F
MONUMENT HILL  SUNNY     77  48  36 NE9       30.35F
TRINIDAD       SUNNY     83  52  34 E14       30.23R
$$

COZ042>045-048>051-090-091-292300-
...NORTHEAST COLORADO...

CITY           SKY/WX    TMP DP  RH WIND       PRES   REMARKS
GREELEY ARPT   SUNNY     88  50  27 NW5       30.18R
AKRON          MOSUNNY   87  49  26 VRB3      30.16F
BURLINGTON     MOSUNNY   87  49  26 VRB7      30.14F
WRAY           SUNNY     93  52  24 NE5       30.10S
STERLING       PTSUNNY   88  55  33 S6        30.10F
HOLYOKE        SUNNY     95  46  18 N7        30.10F
FORT MORGAN    MOSUNNY   89 -23   1 SE5       30.15F
$$

COZ086-089-092>099-292300-
...SOUTHEAST COLORADO...

CITY           SKY/WX    TMP DP  RH WIND       PRES   REMARKS
PUEBLO         SUNNY     89  49  25 VRB3      30.16F
LA JUNTA       SUNNY     88  51  28 SE6       30.13F
LAMAR          SUNNY     89  50  26 S7        30.09F
SPRINGFIELD      N/A     85  45  24 S9        30.14F
$$


USA.gov is the U.S. government's official web portal to all federal, state and local government web resources and services.